Location: Spor
(46.2167°N, 11.0500°E)
Time: 23:26:17
(UTC+00:00)

Cosmos 2298 Rocket - Pass Details

Date: 07 June 2020
Orbit: 776 x 784 km, 74.0° (Epoch: 05 July)

Event Time Altitude Azimuth Distance (km) Brightness Sun altitude
Rises 00:08:43 0° 340° (NNW) 3,271 8.2 -19.9°
Reaches altitude 10° 00:11:08 10° 343° (NNW) 2,340 7.4 -19.8°
Maximum altitude 00:16:26 68° 66° (ENE) 840 4.3 -19.6°
Enters shadow 00:19:49 23° 145° (SE) 1,628 5.3 -19.4°
